CAPE
353 619 2213 2411 2619 3057 3176 3165 3692 2600 1888 1456 1388 1217 1119 1078 1261 1534 1733 1826 1766 1532 1444 1242 950 808 865 989 938 1024 1279 1293 1569 1991 1980 1575 1554 1742 2068 2164 1569 913 1991
619 751 2276 2691 2795 2913 3400 3654 3702 2799 2204 1484 1331 1464 1408 1345 1330 1508 1653 1609 1549 1562 1173 994 911 977 1039 982 1017 880 887 1259 1143 1587 2033 1844 1931 1691 1566 1749 1746 1730 1391
765 893 1511 2725 2966 2734 3102 3589 3398 2947 2160 1858 1798 1771 2003 1646 1618 1644 1623 1497 1166 948 1031 998 1039 1242 1194 1060 925 755 789 739 1093 1272 1572 1473 991 1859 1644 1480 1132 1614 1671
822 854 1085 2618 2718 2613 2848 3336 3248 3057 2590 2487 2209 2120 1969 1676 1673 1520 1234 1084 1019 1002 1162 914 956 1088 985 744 583 625 759 1169 1077 1211 1404 529 924 1815 1802 1651 1371 1415 1366
872 729 1534 2657 2487 2355 2659 3263 3284 3171 3061 2610 2314 2163 1778 1630 1387 1178 1088 1021 1008 1008 831 909 1094 1187 976 676 502 326 240 266 611 962 551 869 852 1315 1211 1405 1639 1084 1481
889 708 1648 2666 2006 2099 2202 2750 2960 2881 2781 2458 2008 1695 1529 1337 1150 1071 1027 956 876 902 898 1012 1108 1096 942 815 752 754 731 665 532 250 477 1264 843 1017 966 1135 948 1342 1170
1020 988 1300 2704 2530 2373 2183 2291 2415 2336 2070 1760 1618 1474 1315 1156 1053 1013 903 1045 1154 1125 1094 1295 1383 1301 1176 1030 996 1010 1014 955 776 388 163 643 950 688 1027 1294 1011 1500 1293
944 1124 1234 2211 2509 1906 1636 1670 1655 1594 1505 1442 1402 1274 1119 1027 1093 1056 1117 1138 1068 1291 1450 1685 1760 1757 1655 1526 1373 1374 1401 1382 1069 744 415 245 991 580 961 1044 1052 1428 1506
726 1010 1248 1402 1727 1694 1431 1382 1382 1347 1249 1113 1041 1043 980 1108 1168 1128 1164 1372 1371 1274 1348 1405 1616 1744 1862 1604 1678 1613 1555 1596 1310 1206 774 394 1443 717 733 1038 1177 1310 1954
714 839 1042 1307 1211 1270 1240 1451 1357 1226 1176 1159 1234 1362 1417 1375 1367 1376 1460 1651 1291 1209 1268 1367 1257 834 1263 2000 1580 1659 1484 1511 1497 1116 1144 924 1290 1037 915 1153 1362 1628 2005
677 789 936 891 816 647 539 1109 1380 1282 1362 1501 1569 1541 1838 1168 936 782 732 688 870 1219 1705 1624 1280 2187 2354 2146 1654 1314 1020 748 1314 1354 1095 1801 1645 1543 1525 1500 1837 2221 2235
627 684 838 831 718 593 332 602 491 249 245 321 602 1248 1375 542 552 578 651 637 1010 1399 1795 1835 1777 1974 2074 1748 1651 1285 876 1290 1151 1291 1215 1657 1793 1581 1695 2233 2597 2160 2072
440 518 536 738 774 588 282 307 189 107 95 399 1346 1550 796 483 732 879 414 630 1221 1638 1452 1657 1767 1757 1815 2165 1621 1509 1524 1377 1597 1169 1205 1444 1437 1706 1948 2380 2394 2399 1473
304 402 323 430 617 372 216 134 76 67 95 431 1074 1435 1198 705 942 925 374 279 810 1061 1725 1669 1920 2367 2428 2385 2311 1978 1712 1726 1518 1298 895 789 814 1135 1508 1967 2180 1876 1278
213 356 276 247 533 222 196 106 50 64 130 444 689 736 628 403 704 807 545 653 714 1227 1394 1501 1803 2084 1839 2326 2471 2358 2006 1989 1761 1730 1501 1438 1167 1123 1267 1314 1537 1621 432
152 240 272 256 423 314 326 350 183 134 424 684 384 273 452 363 384 701 719 699 708 1082 1152 1385 1591 2100 1946 1764 1954 2100 2355 2054 1761 1898 1787 1821 1778 1070 864 1266 1406 1214 1313
84 112 123 276 354 507 452 522 378 349 301 372 331 367 407 465 742 1311 1061 1003 856 998 1382 1256 1269 1424 1417 1511 1785 2195 2141 1905 1819 1800 1953 1814 1818 1075 703 927 1002 1369 1829
0 0 25 31 35 338 412 511 521 384 301 186 226 306 511 813 1135 1551 1312 1172 1129 1290 1185 974 653 569 757 971 1324 1449 1468 1529 1727 1651 1600 1777 1748 1786 1241 1261 1090 1208 1086
15 8 41 155 136 204 588 622 690 442 463 206 229 367 638 971 1131 1712 1382 1179 1497 1361 1143 1059 829 694 832 1208 1036 769 828 915 1018 930 1285 1852 2200 2097 1757 1516 1279 1222 1315
44 175 390 486 633 649 630 822 485 333 239 124 245 450 801 1198 1402 1636 1411 1567 1785 1357 1061 960 1530 1347 1370 911 811 927 984 916 752 821 1441 1463 1630 2241 1815 1542 2050 1457 867
137 471 813 925 1121 1096 1063 789 491 178 48 5 83 433 846 1233 1283 1524 1498 1434 1693 1606 1405 1995 1761 1501 1585 1583 1677 1366 1134 1082 796 882 813 776 1290 1552 1286 1290 1376 935 987
429 820 1269 1435 1677 1688 1321 983 493 276 179 100 58 275 785 1316 1384 1370 1667 1592 1405 1461 1797 2165 2210 1654 1326 1664 2285 2170 1742 1338 774 1382 1319 1216 1206 1485 1310 1453 1173 1225 1607
695 1051 1360 1720 1735 1956 1611 1195 730 619 668 619 636 832 1194 1495 1597 1552 1655 1822 1754 1897 1194 1467 1984 2154 1600 1616 1921 2231 1968 1704 1861 1773 2102 1642 1287 1155 755 1216 1476 1446 1961
692 860 1354 1696 1857 1905 2034 1889 2324 1050 1103 871 974 912 1028 1244 1671 1794 1836 2005 2034 1679 2347 1710 1660 2185 2218 1898 1804 1725 2242 2405 2362 2031 1879 2236 2625 2526 1845 1157 1308 1602 1828
518 648 923 1562 1815 1866 2000 2158 1619 1617 1186 1179 1151 1418 1648 1672 1695 1795 1744 1841 1988 1919 2234 2111 2592 2850 2824 2594 2340 2336 2789 2598 3066 2496 2372 2185 2112 2147 2246 1541 1005 890 1413
242 417 552 1170 2094 1930 1983 2057 2393 3142 2153 1446 1764 1380 1429 1311 1332 1873 2001 1922 2048 1874 2025 2428 2970 3490 3688 3340 2997 3204 3935 3435 2554 2421 2464 2591 2541 2287 2236 2090 1783 1046 1009
CIN
-22 -4 0 0 0 0 0 0 0 0 -4 -19 -22 -37 -47 -49 -35 -19 -5 -2 -3 -13 -13 -20 -36 -45 -42 -25 -30 -15 -2 0 0 -1 0 -1 -5 -2 0 0 -15 0 0
-25 -2 0 0 0 0 0 0 0 0 -2 -17 -25 -24 -26 -26 -24 -13 -10 -9 -10 -8 -27 -37 -39 -30 -26 -17 -6 -17 -21 -1 -1 -1 -1 -1 0 0 0 -6 -10 -6 -1
-17 -3 0 0 0 0 0 0 0 0 -7 -10 -10 -10 -4 -18 -18 -10 -7 -11 -29 -43 -34 -32 -26 -13 -16 -20 -19 -21 -19 -16 -1 -3 -9 -5 0 -1 -3 -6 -15 -2 0
-21 -15 0 0 0 0 0 0 0 0 -1 0 -2 -3 -4 -13 -9 -10 -23 -31 -36 -33 -22 -41 -33 -18 -20 -38 -47 -42 -16 -1 0 -1 -1 -1 0 -10 -1 0 -3 -1 0
-11 -16 0 0 0 0 0 0 0 0 0 0 0 0 -7 -14 -23 -33 -32 -33 -33 -29 -42 -34 -17 -3 -14 -32 -52 -88 -104 -83 -26 -7 0 0 0 -15 -8 -3 -1 -7 -3
-1 -2 -15 0 0 0 0 0 0 0 0 0 -5 -12 -16 -23 -31 -26 -20 -23 -25 -32 -28 -20 -8 -2 -8 -17 -24 -24 -23 -22 -46 -7 -1 -2 0 -29 -18 -6 -10 0 -7
0 0 -4 0 0 0 0 0 0 -1 -4 -13 -14 -19 -25 -30 -32 -23 -22 -11 -13 -22 -10 0 0 0 0 0 -3 -3 -3 -4 -3 -1 -11 0 0 -38 -28 -13 -8 0 -1
-1 0 -1 0 0 0 -2 -2 -4 -7 -10 -16 -19 -23 -32 -39 -32 -24 -10 -18 -15 -8 0 0 0 0 0 0 0 0 0 0 0 0 0 -1 -29 -50 -20 -19 -11 -5 0
-8 -1 -3 -1 0 0 -1 -2 -3 -8 -16 -28 -37 -35 -35 -23 -17 -9 -1 -2 -1 -2 -3 0 0 -2 -1 -3 -4 -2 -2 0 0 0 0 0 -63 -49 -34 -14 -9 -6 0
-21 -3 -2 0 0 0 0 0 0 -6 -13 -21 -23 -13 -6 -6 -6 -3 -1 -10 -11 -11 -14 -3 -7 -54 -23 -3 -6 -5 -3 -3 0 0 -1 0 -25 -27 -24 -16 -9 -6 -2
-31 -11 -3 -7 -16 -22 -26 -3 0 -2 -3 -2 -2 -4 0 0 0 -1 -12 -40 -44 -26 -10 -5 -32 -3 -5 -10 -15 -24 -37 -28 -21 0 0 -31 -16 -13 -12 -14 -9 -6 -4
-63 -48 -14 -8 -13 -27 -53 -23 -47 -85 -72 -38 -3 0 0 0 -6 -27 -36 -68 -53 -38 -25 -21 -26 -26 -43 -1 -1 -30 0 0 -26 0 0 -37 -21 -20 -13 -4 -2 -10 -12
-103 -81 -73 -28 -23 -28 -79 -75 -98 -106 -111 -10 0 0 -1 -13 -7 -6 -15 -3 0 -10 -1 -2 -1 0 0 0 0 0 0 0 0 0 -30 -52 -27 -11 -6 -2 -5 -4 -17
-143 -108 -123 -88 -59 -77 -119 -140 -140 -154 -131 -17 0 -1 -6 -22 -2 -5 -22 -35 -9 0 0 0 0 0 0 0 0 0 0 0 0 0 -3 -83 -80 -60 -28 -14 -8 -4 -12
-172 -131 -147 -158 -110 -156 -156 -170 -211 -173 -105 -12 -7 -17 -36 -46 -12 -5 -18 -9 -3 0 0 0 0 0 -2 0 0 0 0 0 0 0 0 -56 -62 -58 -50 -25 -14 -6 -58
-195 -163 -139 -159 -141 -163 -139 -119 -136 -127 -36 -15 -36 -60 -69 -60 -42 -6 -5 -4 -1 0 0 0 0 0 0 0 0 0 0 0 0 0 0 -1 -60 -84 -88 -29 -9 -5 -11
-220 -205 -189 -154 -144 -130 -114 -85 -103 -79 -67 -58 -66 -76 -79 -60 -25 -16 -1 0 0 0 -1 0 0 0 0 0 0 0 0 0 0 0 0 0 -5 -101 -112 -82 -44 -11 -8
0 0 -275 -267 -244 -148 -113 -89 -70 -79 -83 -107 -95 -73 -63 -34 -25 -8 0 0 0 0 0 0 0 0 0 0 0 0 0 0 0 0 0 0 0 0 -23 -77 -72 -37 -32
-326 -130 -262 -205 -180 -156 -107 -80 -64 -85 -85 -114 -106 -67 -39 -23 -14 -9 0 0 0 0 0 0 0 0 0 0 0 0 0 0 0 0 0 0 0 -3 0 -87 -68 -62 -58
-323 -236 -179 -147 -122 -118 -99 -77 -113 -135 -134 -150 -115 -69 -29 -6 -11 -7 0 -1 -1 0 0 0 -2 0 0 -2 -4 -2 -2 0 -2 -5 -6 0 0 0 -1 -3 -3 -17 -122
-304 -204 -154 -131 -101 -86 -79 -97 -138 -182 -226 -264 -177 -113 -44 -16 -12 -9 -1 0 0 -1 -1 -5 -1 0 0 0 0 0 0 0 -2 -5 -15 -7 0 -1 -10 -20 -20 -20 -25
-251 -187 -134 -102 -78 -78 -77 -106 -156 -178 -181 -213 -220 -141 -67 -24 -17 -10 -8 -1 0 0 0 -2 -2 -1 0 0 0 0 0 0 -17 0 0 -11 -22 -6 -7 -15 -25 -35 -18
-224 -210 -180 -137 -125 -107 -103 -135 -188 -178 -153 -132 -119 -82 -44 -37 -26 -20 -19 -10 -3 -5 -16 -4 -1 -3 -1 0 0 0 0 0 0 -1 -3 0 -10 -15 -40 -22 -32 -29 -18
-236 -234 -216 -200 -183 -166 -139 -105 -63 -142 -98 -97 -91 -93 -85 -75 -33 -14 -14 -13 -17 -24 -6 -12 -13 -15 -4 0 0 0 0 0 0 0 0 -1 -2 0 -2 -27 -6 -12 -26
-247 -243 -255 -238 -224 -195 -191 -141 -153 -148 -123 -102 -82 -72 -55 -43 -42 -37 -43 -45 -34 -38 -17 -29 -22 -5 -2 0 0 0 0 0 -1 0 -4 0 0 0 0 -1 -25 -22 -1
-285 -223 -225 -258 -220 -233 -207 -206 -134 -51 -92 -89 -62 -75 -66 -71 -71 -55 -48 -63 -64 -61 -42 -21 -4 -1 -2 -3 -1 0 0 0 0 0 0 -1 0 0 0 0 0 -19 -32
Wind_Speed
9 9 11 8 8 9 9 10 9 9 10 8 7 6 7 7 5 4 3 3 2 3 4 4 4 4 5 4 4 6 6 4 4 6 9 9 10 10 13 13 7 14 9
13 10 9 7 8 8 8 8 9 10 9 9 9 7 7 6 6 5 3 1 1 1 3 4 5 5 3 2 2 3 2 2 2 3 9 13 12 12 11 10 10 21 11
11 9 11 7 8 8 7 9 10 10 9 9 9 9 8 8 7 6 3 3 4 3 3 4 4 3 4 4 4 3 3 4 4 4 5 12 13 12 8 9 12 13 11
10 11 11 9 9 9 6 7 8 8 8 9 9 9 9 8 8 7 6 7 7 7 7 7 5 5 7 8 6 5 6 7 8 10 17 9 9 16 11 6 9 11 11
12 14 6 11 12 13 9 8 7 8 8 8 8 8 9 9 9 9 9 9 10 9 10 8 7 7 8 9 10 9 7 8 9 13 9 11 13 16 10 8 12 11 7
12 14 7 11 13 15 15 13 12 11 11 9 9 9 9 10 10 10 10 10 11 12 12 12 12 11 10 11 14 14 11 10 13 14 9 8 13 12 14 12 8 8 9
11 9 11 12 13 14 15 14 14 14 14 12 11 11 11 12 13 13 13 13 13 14 12 13 14 15 15 15 17 17 14 11 13 8 9 10 11 9 12 13 16 7 7
10 7 10 10 12 14 15 15 15 15 16 14 13 14 16 15 16 16 14 15 12 14 14 12 15 17 15 18 19 18 15 12 12 11 9 10 14 13 16 16 15 14 7
8 9 9 11 12 14 15 14 15 15 15 16 12 13 14 16 17 17 17 20 21 18 16 9 8 21 20 22 20 19 15 8 8 5 5 8 21 18 18 19 18 15 12
8 9 10 10 11 13 12 14 15 15 14 14 14 13 13 15 18 19 18 23 20 20 27 33 31 26 23 17 24 20 18 19 6 5 7 4 9 12 15 19 19 13 17
11 9 10 10 9 10 11 10 13 14 14 14 14 14 15 18 17 17 11 12 15 17 20 8 17 21 24 23 22 19 22 13 5 7 10 21 9 9 11 15 16 13 16
11 10 10 12 11 9 9 8 14 13 15 16 16 14 16 16 14 16 17 18 22 22 21 20 23 23 25 15 14 23 17 19 13 14 16 24 10 8 11 10 11 13 15
11 9 11 12 9 10 10 8 9 10 nan 12 16 14 14 14 14 15 14 16 15 19 15 12 11 12 7 8 9 11 10 16 13 13 16 23 14 6 6 8 6 8 12
11 11 10 10 8 11 8 9 nan nan nan 12 11 13 13 14 14 14 14 13 14 14 10 11 9 7 9 10 10 12 12 12 12 13 14 24 24 19 12 11 11 1 5
10 10 10 8 7 10 9 8 nan nan 11 13 12 12 14 14 14 15 13 14 14 15 15 13 10 7 8 11 10 12 12 10 11 13 14 25 21 19 21 21 12 13 17
10 11 11 11 10 12 10 11 11 11 12 12 13 13 13 15 14 15 15 16 16 17 15 13 11 12 10 10 10 10 11 11 12 13 13 16 27 25 26 25 25 11 18
nan 11 12 12 12 12 12 11 11 11 11 11 12 14 15 16 15 16 15 14 14 14 16 18 16 15 16 14 12 14 14 14 13 14 14 13 19 27 28 26 23 20 14
nan nan nan nan nan 11 9 9 10 11 12 13 14 14 14 15 14 13 13 13 13 14 17 18 18 17 16 14 11 14 11 13 14 14 15 14 14 17 28 27 27 25 18
nan nan nan 10 12 13 11 10 11 13 13 14 13 12 11 14 15 13 12 11 13 14 15 15 13 12 13 14 14 9 10 10 10 9 9 14 17 17 17 33 29 26 24
nan 12 13 13 16 13 11 11 10 11 12 12 11 10 10 10 12 12 12 12 11 12 13 14 11 10 11 13 12 10 12 11 8 6 8 14 17 18 18 17 23 24 27
14 14 14 16 13 10 9 8 9 9 nan nan nan 12 12 12 12 10 12 14 14 14 11 13 16 18 16 12 10 10 9 16 16 14 12 10 14 17 16 19 18 16 22
17 15 14 16 13 11 8 6 5 6 6 6 nan 9 11 13 13 13 12 11 10 8 12 12 14 13 14 14 14 10 13 15 23 19 16 15 13 17 18 17 15 15 13
16 15 14 15 14 13 14 7 6 6 6 7 8 10 13 15 17 18 15 14 11 11 10 11 14 14 11 10 13 14 13 15 13 20 24 18 16 15 16 20 15 13 13
13 14 15 15 15 13 13 9 10 10 10 10 10 9 10 14 16 17 16 16 14 12 10 12 16 16 16 15 15 16 18 14 17 17 20 25 28 19 16 18 20 21 17
9 10 11 13 13 13 14 15 12 14 11 10 9 10 10 10 15 16 17 17 17 17 19 19 16 18 18 21 19 18 20 21 25 21 16 19 20 24 25 24 22 20 22
7 8 10 11 11 14 14 16 15 14 13 9 12 11 12 12 13 17 15 19 22 23 25 25 26 27 27 22 24 27 28 27 24 23 22 24 24 24 22 26 29 26 26
Wind_Direction
29 14 65 57 53 53 50 48 41 37 26 6 11 4 359 358 342 337 293 276 253 208 201 210 207 211 214 222 238 245 250 252 270 309 316 300 290 277 278 288 322 273 289
30 16 51 51 49 48 44 37 28 35 29 19 16 15 11 7 5 3 1 358 95 167 177 189 195 195 193 161 190 239 260 268 277 289 325 326 318 296 278 255 205 270 284
28 28 43 53 43 33 37 28 22 25 28 26 29 30 30 28 31 40 39 63 81 92 129 137 130 116 103 98 114 99 76 76 67 70 65 30 326 309 246 275 249 266 275
30 42 40 62 51 31 37 39 21 20 20 25 32 40 43 50 61 72 78 84 87 92 99 97 76 75 82 79 74 78 82 81 76 76 56 34 19 358 359 314 287 284 287
32 48 33 64 57 49 53 65 45 38 32 35 40 48 56 62 68 73 78 85 86 87 87 84 78 75 72 78 79 72 73 63 71 64 38 46 42 340 350 339 334 310 315
34 44 16 56 50 55 65 66 58 47 39 39 53 65 67 72 76 78 82 89 92 94 98 101 94 89 80 75 82 80 75 72 74 58 56 4 64 332 8 19 27 324 322
39 27 25 44 41 46 52 57 51 45 42 53 70 77 82 83 85 85 81 79 81 90 103 107 105 100 100 99 93 88 78 67 80 79 42 44 28 347 29 22 32 350 314
46 22 14 30 37 40 42 44 47 49 52 70 79 88 86 83 79 71 95 69 76 109 110 111 109 107 109 108 100 92 88 83 70 46 45 36 323 351 30 27 34 48 38
36 24 28 37 41 42 48 53 55 54 56 64 79 86 83 79 78 77 72 75 87 90 82 91 147 100 87 88 94 83 71 68 89 106 98 28 330 353 21 41 35 38 40
40 21 21 33 41 52 43 56 62 63 62 67 74 79 84 84 78 72 77 65 74 72 61 46 48 65 71 72 74 60 45 35 59 44 12 38 305 350 22 32 31 34 32
62 44 33 30 48 53 56 43 62 69 71 74 73 76 76 81 62 60 60 80 77 70 76 18 70 70 73 77 59 37 43 28 115 55 359 314 339 2 26 39 33 27 29
51 45 46 48 38 44 72 50 68 62 71 74 80 82 77 87 89 97 90 68 66 66 69 61 54 61 57 46 30 23 36 44 50 49 3 337 325 10 3 37 39 22 16
45 58 52 56 59 50 76 81 84 87 nan 78 84 88 86 96 77 69 68 58 57 37 60 55 60 53 52 52 40 41 36 41 46 34 357 1 3 1 8 19 13 36 28
41 48 47 54 60 66 82 87 nan nan nan 89 78 74 84 83 72 73 71 64 51 54 60 52 50 65 57 46 33 41 40 36 30 35 24 5 22 33 15 358 339 53 139
41 48 54 44 49 77 74 78 nan nan 82 89 87 76 83 85 82 78 75 68 65 63 60 50 45 40 45 42 24 34 42 39 38 29 25 358 20 32 19 0 342 297 338
38 41 44 46 47 61 70 82 88 88 90 90 93 81 65 76 76 80 67 62 62 62 66 69 70 56 50 47 37 25 34 36 28 37 34 17 5 15 21 17 20 13 8
nan 43 48 53 45 53 63 69 84 91 85 91 85 79 74 75 67 77 71 73 70 69 71 67 67 61 58 52 48 31 25 24 22 25 26 25 360 5 16 18 8 19 26
nan nan nan nan nan 43 59 71 87 88 101 97 93 88 69 68 70 70 69 67 60 73 73 72 72 71 69 67 60 50 35 32 28 29 24 16 12 2 1 15 12 2 3
nan nan nan 34 49 57 64 85 89 95 99 102 97 88 69 60 54 59 73 65 60 67 63 61 60 57 60 60 65 71 61 54 44 35 13 11 11 7 5 348 5 12 6
nan 29 40 51 67 70 82 86 97 97 96 93 88 81 58 46 54 59 67 70 66 56 50 47 44 53 50 46 39 33 32 23 26 20 23 9 358 356 358 355 350 356 1
43 48 50 55 62 78 81 76 76 76 nan nan nan 62 60 58 58 54 58 48 32 27 25 22 18 17 19 17 19 24 6 7 351 333 343 352 340 345 339 343 346 343 333
44 52 57 64 55 65 78 86 92 82 79 82 nan 41 35 42 45 48 46 39 31 24 16 21 20 18 18 5 356 351 337 342 319 343 328 335 336 326 333 337 337 332 334
43 45 49 47 48 55 71 71 63 82 73 33 32 43 42 43 47 40 45 39 45 36 32 15 14 10 7 1 350 338 325 321 309 318 332 315 313 321 318 321 330 323 317
36 40 45 45 44 39 35 41 44 58 57 50 47 47 43 32 37 40 38 37 35 35 35 12 3 6 357 359 348 342 336 324 312 310 313 321 328 322 322 316 316 317 318
31 30 33 35 41 47 28 39 22 36 34 33 36 37 31 31 28 31 25 22 21 15 8 7 3 355 347 343 337 329 324 324 328 325 313 309 309 316 321 316 311 304 303
31 41 33 29 30 27 27 19 25 21 20 14 4 7 4 8 1 9 19 12 8 1 355 346 342 339 335 329 325 327 322 320 316 314 314 314 318 315 310 311 305 297 295